GALAXY 27 (G-27)

Last updated on May 29, 2016, 5:40 p.m. UTC

1 25922U 99052A   16149.61591787 -.00000240  00000-0  00000-0 0  9997
2 25922   2.4204  73.5849 0001599  56.5701 303.0121  0.99020494 14909
UTC
Height (km)
Latitude
Longitude
Inclination
Orbital Period
UTC large
Height (km)
Speed (km/s)
/
Latitude / Longitude
Inclination (degrees)
Orbital Period (minutes)
Azimuth
Elevation
Range (km)
Doppler Factor
iOS Compass Heading
iOS Angle

Next 30 passes for location: Hong Kong

Rise time Rise Azimuth (degrees) Set time Set Azimuth (degrees) Duration Max altitude (degrees)

No matching passes for this satellites